Tracking 23448 objects as of 23-Jun-2021
HD Live streaming from Space Station
objects crossing your sky now

MORELOS 1 R/B(PAM-D)

Track MORELOS 1 R/B(PAM-D) now!


NORAD ID: 15832
Int'l Code: 1985-048F
Perigee: 384.7 km
Apogee: 34,396.1 km
Inclination: 25.8 °
Period: 607.5 minutes
Semi major axis: 23761 km
RCS: 2.6667 m2 (large)
Launch date: June 17, 1985
Source: United States (US)
Launch site: AIR FORCE EASTERN TEST RANGE (AFETR)

Note: This is a ROCKET BODY
aabbcc
Your satellite tracking list
Your tracking list is empty




NASA's NSSDC Master Catalog

Two Line Element Set (TLE):
1 15832U 85048F   21173.54466064 -.00000017  00000-0  45001-3 0  9995
2 15832  25.8100  16.9140 7156854  84.9362 345.9766  2.37025557252540
Source of the keplerian elements: AFSPC